User: anonymous   Login
Location: Santa Barbara
(34.4500°N, 119.7700°W)
Time: 15:07:19
(UTC-08:00)
Language:

Cosmos 1626 Rocket - Orbit

View from above orbital plane
View from above orbital plane
View from above satellite
View from above satellite

Ground track
Ground track

The orbit data is extracted from the following two-line orbital elements,

1 15495U 85009B   18051.81622170  .00000076  00000-0  62875-5 0  9994
2 15495  82.5261 314.5809 0018953 227.0585 132.9041 14.83801394786838
Epoch (UTC): 20 February 2018 19:35:21
Eccentricity: 0.0018953
inclination: 82.5261°
perigee height: 604 km
apogee height: 630 km
right ascension of ascending node: 314.5809°
argument of perigee: 227.0585°
revolutions per day: 14.83801394
mean anomaly at epoch: 132.9041°
orbit number at epoch: 78683

The dashed part of the orbit path shows where the satellite is in the earth's shadow,  

DLR